Weather History for Alexandria, LA

Change the Weather History Date:

Thursday, May 9, 2013

  Actual Average Record
Temperature  
Mean Temperature 70 °F 73 °F  
Max Temperature 80 °F 84 °F 95 °F (2008)
Min Temperature 60 °F 62 °F 45 °F (1917)
Cooling Degree Days 5 8  
Month to date cooling degree days 24 63  
Year to date cooling degree days 151 222  
Growing Degree Days 20 (Base 50)    
Moisture  
Dew Point 67 °F    
Average Humidity 84    
Maximum Humidity 100    
Minimum Humidity 67    
Precipitation  
Precipitation T in 0.13 in 1.94 in (1990)
Month to date precipitation 0.14 1.27  
Year to date precipitation 21.18 20.55  
Sea Level Pressure  
Sea Level Pressure 30.01 in    
Wind  
Wind Speed 6 mph (SE)    
Max Wind Speed 13 mph    
Max Gust Speed 17 mph    
Visibility 8 miles    
Events Rain , Thunderstorm    
T = Trace of Precipitation, MM = Missing Value Source: NWS Daily Summary

Daily Weather History Graph

Daily Weather History Graph

Search for Another Location

Airport:

Trip Planner

Search our weather history database for the weather conditions in past years. The results will help you decide how hot, cold, wet, or windy it might be!

Date:

Astronomy

May. 09, 2013 Rise Set
Actual Time 6:18 AM CDT 7:55 PM CDT
Civil Twilight 5:52 AM CDT 8:21 PM CDT
Nautical Twilight 5:20 AM CDT 8:53 PM CDT
Astronomical Twilight 4:47 AM CDT 9:26 PM CDT
Moon 6:01 AM CDT (5/9) 7:51 PM CDT (5/9)
Length of Visible Light 14h 29m
Length of Day
13h 37m
Waning Crescent, 0% of the Moon is Illuminated
May 9
Waning Crescent
May 9
New
May 17
First Quarter
May 24
Full
May 31
Last Quarter

Hourly Weather History & Observations

Time (CDT) Temp. Dew Point Humidity Pressure Visibility Wind Dir Wind Speed Gust Speed Precip Events Conditions
12:53 AM 64.0 °F 59.0 °F 84% 30.02 in 10.0 mi SE 3.5 mph - N/A   Clear
1:53 AM 64.0 °F 60.1 °F 87% 30.02 in 10.0 mi SE 3.5 mph - N/A   Clear
2:53 AM 63.0 °F 62.1 °F 97% 30.01 in 10.0 mi SE 5.8 mph - N/A   Clear
3:53 AM 64.0 °F 62.1 °F 93% 30.02 in 9.0 mi Calm Calm - N/A   Clear
4:53 AM 63.0 °F 62.1 °F 97% 30.04 in 8.0 mi Calm Calm - N/A   Partly Cloudy
5:53 AM 60.1 °F 60.1 °F 100% 30.03 in 6.0 mi SE 4.6 mph - N/A   Clear
6:53 AM 62.1 °F 62.1 °F 100% 30.05 in 4.0 mi SE 4.6 mph - N/A   Clear
7:53 AM 64.0 °F 64.0 °F 100% 30.06 in 3.0 mi SSE 4.6 mph - N/A   Clear
8:03 AM 64.4 °F 64.4 °F 100% 30.05 in 4.0 mi SSE 4.6 mph - N/A   Scattered Clouds
8:13 AM 64.4 °F 64.4 °F 100% 30.05 in 4.0 mi Calm Calm - N/A   Mostly Cloudy
8:53 AM 66.9 °F 66.0 °F 97% 30.07 in 6.0 mi South 4.6 mph - N/A   Mostly Cloudy
9:13 AM 69.8 °F 66.2 °F 88% 30.06 in 9.0 mi SSE 6.9 mph - N/A   Scattered Clouds
9:53 AM 73.9 °F 66.9 °F 79% 30.07 in 10.0 mi SSE 6.9 mph - N/A   Clear
10:26 AM 75.2 °F 66.2 °F 73% 30.06 in 10.0 mi South 5.8 mph - N/A   Mostly Cloudy
10:53 AM 77.0 °F 66.0 °F 69% 30.08 in 10.0 mi SSW 8.1 mph - N/A   Mostly Cloudy
11:00 AM 78.8 °F 66.2 °F 65% 30.07 in 10.0 mi SSW 8.1 mph - N/A   Scattered Clouds
12:53 PM 79.0 °F 66.9 °F 66% 30.06 in 10.0 mi SE 9.2 mph - N/A   Mostly Cloudy
1:53 PM 78.1 °F 66.9 °F 68% 30.04 in 10.0 mi SSE 8.1 mph - N/A   Overcast
3:53 PM 75.9 °F 69.1 °F 79% 30.01 in 10.0 mi South 6.9 mph - 0.00 in   Overcast
4:33 PM 73.4 °F 68.0 °F 83% 29.99 in 10.0 mi SSE 9.2 mph - 0.00 in   Overcast
4:53 PM 73.9 °F 69.1 °F 85% 30.00 in 10.0 mi SSE 8.1 mph - 0.00 in   Overcast
5:29 PM 73.4 °F 68.0 °F 83% 29.99 in 10.0 mi SSE 5.8 mph - N/A   Overcast
5:53 PM 73.9 °F 69.1 °F 85% 29.99 in 10.0 mi SE 9.2 mph - N/A   Overcast
6:53 PM 73.0 °F 69.1 °F 87% 29.98 in 10.0 mi SSE 4.6 mph - N/A   Overcast
7:53 PM 72.0 °F 69.1 °F 91% 29.98 in 10.0 mi SE 4.6 mph - N/A   Overcast
8:53 PM 72.0 °F 69.1 °F 91% 29.97 in 10.0 mi ESE 5.8 mph - 0.00 in Rain Light Rain
9:00 PM 71.6 °F 69.8 °F 94% 29.96 in 10.0 mi ESE 5.8 mph - 0.00 in Rain , Thunderstorm Light Rain
9:15 PM 71.6 °F 69.8 °F 94% 29.95 in 10.0 mi SE 5.8 mph - 0.00 in Rain Light Rain
9:34 PM 71.6 °F 69.8 °F 94% 29.95 in 10.0 mi East 5.8 mph - 0.01 in Rain , Thunderstorm Light Rain
9:53 PM 72.0 °F 69.1 °F 91% 29.97 in 10.0 mi ESE 5.8 mph - 0.01 in Rain , Thunderstorm Light Rain
10:02 PM 71.6 °F 69.8 °F 94% 29.96 in 8.0 mi East 4.6 mph - 0.03 in Rain Heavy Rain
10:39 PM 71.6 °F 69.8 °F 94% 29.97 in 7.0 mi SE 8.1 mph - 0.10 in Rain , Thunderstorm Light Thunderstorms and Rain
10:53 PM 71.1 °F 69.1 °F 93% 29.97 in 8.0 mi East 5.8 mph - 0.11 in Rain , Thunderstorm Light Rain
11:35 PM 71.6 °F 69.8 °F 94% 29.98 in 5.0 mi Calm Calm - 0.05 in Rain , Thunderstorm Thunderstorms and Rain
11:43 PM 69.8 °F 69.8 °F 100% 29.99 in 1.8 mi WNW 3.5 mph - 0.18 in Rain , Thunderstorm Heavy Thunderstorms and Rain
11:51 PM 69.8 °F 69.8 °F 100% 29.98 in 1.0 mi NNW 6.9 mph - 0.28 in Rain , Thunderstorm Heavy Thunderstorms and Rain
11:59 PM 69.8 °F 69.8 °F 100% 29.97 in 3.0 mi North 6.9 mph - 0.01 in Rain , Thunderstorm Thunderstorms and Rain